Location: Little Baddow
(51.7333°N, 0.5667°E)
Time: 15:22:37
(UTC+00:00)

COSMOS 2428 - Pass Details

Date: 16 February 2026
Orbit: 843 x 856 km, 70.9° (Epoch: 6 March)

Event Time Altitude Azimuth Distance (km) Brightness Sun altitude
Rises 17:46:25 0° 325° (NW) 3,438 6.2 -5.6°
Reaches altitude 10° 17:49:01 10° 318° (NW) 2,498 5.6 -6.0°
Maximum altitude 17:54:16 38° 252° (WSW) 1,284 4.5 -6.8°
Drops below altitude 10° 17:59:29 10° 186° (S) 2,482 5.4 -7.6°
Sets 18:02:04 0° 178° (S) 3,413 6.0 -8.0°
